| time (UTC) | temp F | wind direction | speed MPH | gust MPH | rain 1hr in | rain 24hr in | rain mn in | humidity % | barometer mb |
| 20260508133802 | 81 | 209 | 0.0 | 0.0 | 0.00 | 0.00 | 0.00 | 81 | 976.8 |
| 20260508133300 | 81 | 204 | 0.0 | 0.0 | 0.00 | 0.00 | 0.00 | 82 | 976.8 |
| 20260508132757 | 81 | 220 | 0.0 | 0.0 | 0.00 | 0.00 | 0.00 | 81 | 976.6 |
| 20260508132254 | 81 | 220 | 0.0 | 0.0 | 0.00 | 0.00 | 0.00 | 82 | 976.6 |
| 20260508131750 | 81 | 220 | 0.0 | 0.0 | 0.00 | 0.00 | 0.00 | 82 | 976.7 |
| 20260508131247 | 82 | 220 | 0.0 | 0.0 | 0.00 | 0.00 | 0.00 | 82 | 976.3 |
| 20260508130743 | 82 | 220 | 0.0 | 0.0 | 0.00 | 0.00 | 0.00 | 82 | 976.2 |
| 20260508130240 | 82 | 220 | 0.0 | 0.0 | 0.00 | 0.00 | 0.00 | 80 | 976.1 |
| 20260508125736 | 82 | 220 | 0.0 | 0.0 | 0.00 | 0.00 | 0.00 | 76 | 976.0 |
| 20260508125232 | 83 | 220 | 0.0 | 0.0 | 0.00 | 0.00 | 0.00 | 75 | 975.9 |
| 20260508124731 | 83 | 210 | 0.0 | 0.0 | 0.00 | 0.00 | 0.00 | 75 | 975.9 |
| 20260508124227 | 83 | 200 | 0.0 | 0.0 | 0.00 | 0.00 | 0.00 | 75 | 975.7 |
| 20260508123726 | 83 | 208 | 0.0 | 0.0 | 0.00 | 0.00 | 0.00 | 75 | 975.5 |
| 20260508123224 | 83 | 208 | 0.0 | 0.0 | 0.00 | 0.00 | 0.00 | 75 | 975.4 |
| 20260508122719 | 84 | 205 | 0.0 | 0.0 | 0.00 | 0.00 | 0.00 | 74 | 975.5 |
| 20260508122216 | 84 | 209 | 0.0 | 0.0 | 0.00 | 0.00 | 0.00 | 74 | 975.3 |
| 20260508121714 | 84 | 208 | 0.0 | 0.0 | 0.00 | 0.00 | 0.00 | 73 | 975.6 |
| 20260508121213 | 84 | 208 | 0.0 | 0.0 | 0.00 | 0.00 | 0.00 | 73 | 975.6 |
| 20260508120709 | 84 | 208 | 0.0 | 0.0 | 0.00 | 0.00 | 0.00 | 73 | 975.5 |
| 20260508120208 | 84 | 208 | 0.0 | 0.0 | 0.00 | 0.00 | 0.00 | 73 | 975.4 |
| 20260508115705 | 84 | 208 | 0.0 | 0.0 | 0.00 | 0.00 | 0.00 | 73 | 975.4 |
| 20260508115202 | 84 | 208 | 0.0 | 0.0 | 0.00 | 0.00 | 0.00 | 72 | 975.4 |
| 20260508114658 | 84 | 208 | 0.0 | 0.0 | 0.00 | 0.00 | 0.00 | 73 | 975.4 |
| 20260508114155 | 85 | 208 | 0.0 | 0.0 | 0.00 | 0.00 | 0.00 | 71 | 975.3 |
| 20260508113652 | 85 | 207 | 0.0 | 0.0 | 0.00 | 0.00 | 0.00 | 71 | 975.2 |
| 20260508113150 | 85 | 208 | 0.0 | 0.0 | 0.00 | 0.00 | 0.00 | 70 | 975.3 |
| 20260508112646 | 86 | 212 | 0.0 | 0.0 | 0.00 | 0.00 | 0.00 | 69 | 975.3 |
| 20260508112143 | 86 | 222 | 0.0 | 0.0 | 0.00 | 0.00 | 0.00 | 69 | 975.0 |
| 20260508111640 | 86 | 204 | 0.0 | 2.0 | 0.00 | 0.00 | 0.00 | 68 | 974.9 |
| 20260508111137 | 86 | 103 | 0.0 | 1.0 | 0.00 | 0.00 | 0.00 | 68 | 974.9 |
| 20260508110635 | 86 | 186 | 0.0 | 0.0 | 0.00 | 0.00 | 0.00 | 68 | 974.8 |
| 20260508110131 | 86 | 169 | 0.0 | 2.0 | 0.00 | 0.00 | 0.00 | 68 | 974.7 |
| 20260508105626 | 86 | 155 | 1.0 | 2.0 | 0.00 | 0.00 | 0.00 | 67 | 974.7 |
| 20260508105123 | 86 | 61 | 1.0 | 2.0 | 0.00 | 0.00 | 0.00 | 67 | 974.8 |
| 20260508104621 | 86 | 153 | 0.0 | 1.0 | 0.00 | 0.00 | 0.00 | 67 | 974.7 |
| 20260508104117 | 87 | 167 | 0.0 | 2.0 | 0.00 | 0.00 | 0.00 | 66 | 974.7 |
| 20260508103614 | 87 | 62 | 1.0 | 2.0 | 0.00 | 0.00 | 0.00 | 65 | 974.6 |
| 20260508103111 | 87 | 170 | 0.0 | 1.0 | 0.00 | 0.00 | 0.00 | 63 | 974.6 |
| 20260508102609 | 87 | 65 | 2.0 | 2.0 | 0.00 | 0.00 | 0.00 | 62 | 974.7 |
| 20260508102106 | 87 | 81 | 1.0 | 2.0 | 0.00 | 0.00 | 0.00 | 63 | 974.7 |
| 20260508101604 | 87 | 114 | 1.0 | 2.0 | 0.00 | 0.00 | 0.00 | 64 | 974.6 |
| 20260508101101 | 87 | 167 | 0.0 | 0.0 | 0.00 | 0.00 | 0.00 | 65 | 974.4 |
| 20260508100559 | 87 | 165 | 0.0 | 1.0 | 0.00 | 0.00 | 0.00 | 65 | 974.1 |
| 20260508100055 | 87 | 155 | 0.0 | 1.0 | 0.00 | 0.00 | 0.00 | 65 | 974.2 |
| 20260508095552 | 87 | 43 | 0.0 | 1.0 | 0.00 | 0.00 | 0.00 | 66 | 974.1 |
| 20260508095049 | 87 | 56 | 1.0 | 2.0 | 0.00 | 0.00 | 0.00 | 66 | 974.1 |
| 20260508094547 | 87 | 330 | 0.0 | 2.0 | 0.00 | 0.00 | 0.00 | 64 | 974.2 |
| 20260508094043 | 88 | 326 | 0.0 | 2.0 | 0.00 | 0.00 | 0.00 | 65 | 974.1 |
| 20260508093540 | 88 | 185 | 0.0 | 2.0 | 0.00 | 0.00 | 0.00 | 65 | 974.1 |
| 20260508093038 | 87 | 175 | 1.0 | 1.0 | 0.00 | 0.00 | 0.00 | 66 | 974.0 |
| 20260508092535 | 88 | 57 | 1.0 | 3.0 | 0.00 | 0.00 | 0.00 | 64 | 973.9 |
| 20260508092034 | 88 | 194 | 0.0 | 3.0 | 0.00 | 0.00 | 0.00 | 67 | 974.2 |
| 20260508091531 | 88 | 327 | 1.0 | 5.0 | 0.00 | 0.00 | 0.00 | 66 | 974.3 |
| 20260508091027 | 88 | 208 | 0.0 | 0.0 | 0.00 | 0.00 | 0.00 | 65 | 974.3 |
| 20260508090526 | 88 | 188 | 0.0 | 1.0 | 0.00 | 0.00 | 0.00 | 65 | 974.3 |
| 20260508090022 | 87 | 179 | 0.0 | 1.0 | 0.00 | 0.00 | 0.00 | 65 | 974.3 |
| 20260508085518 | 87 | 127 | 3.0 | 5.0 | 0.00 | 0.00 | 0.00 | 66 | 974.5 |
| 20260508085015 | 87 | 156 | 0.0 | 3.0 | 0.00 | 0.00 | 0.00 | 64 | 974.5 |
| 20260508084512 | 88 | 70 | 2.0 | 5.0 | 0.00 | 0.00 | 0.00 | 64 | 974.5 |
| 20260508084010 | 88 | 46 | 1.0 | 1.0 | 0.00 | 0.00 | 0.00 | 65 | 974.6 |
| 20260508083507 | 88 | 177 | 0.0 | 1.0 | 0.00 | 0.00 | 0.00 | 65 | 974.3 |
| 20260508083003 | 89 | 104 | 2.0 | 7.0 | 0.00 | 0.00 | 0.00 | 66 | 974.7 |
| 20260508082459 | 89 | 204 | 0.0 | 2.0 | 0.00 | 0.00 | 0.00 | 65 | 974.5 |
| 20260508081957 | 89 | 213 | 0.0 | 0.0 | 0.00 | 0.00 | 0.00 | 63 | 974.5 |
| 20260508081454 | 89 | 218 | 0.0 | 0.0 | 0.00 | 0.00 | 0.00 | 66 | 974.6 |
| 20260508080949 | 89 | 187 | 0.0 | 1.0 | 0.00 | 0.00 | 0.00 | 66 | 974.8 |
| 20260508080448 | 88 | 192 | 0.0 | 0.0 | 0.00 | 0.00 | 0.00 | 66 | 974.7 |
| 20260508075945 | 88 | 348 | 0.0 | 5.0 | 0.00 | 0.00 | 0.00 | 68 | 975.0 |
| 20260508075442 | 88 | 9 | 3.0 | 3.0 | 0.00 | 0.00 | 0.00 | 68 | 975.0 |
| 20260508074939 | 88 | 208 | 0.0 | 3.0 | 0.00 | 0.00 | 0.00 | 70 | 975.1 |
| 20260508074437 | 89 | 85 | 2.0 | 2.0 | 0.00 | 0.00 | 0.00 | 67 | 975.3 |
| 20260508073933 | 87 | 258 | 0.0 | 2.0 | 0.00 | 0.00 | 0.00 | 69 | 975.3 |
| 20260508073431 | 87 | 62 | 2.0 | 3.0 | 0.00 | 0.00 | 0.00 | 69 | 975.4 |
| 20260508072928 | 88 | 183 | 0.0 | 0.0 | 0.00 | 0.00 | 0.00 | 72 | 975.6 |
| 20260508072424 | 87 | 47 | 2.0 | 5.0 | 0.00 | 0.00 | 0.00 | 71 | 975.7 |
| 20260508071921 | 87 | 161 | 0.0 | 1.0 | 0.00 | 0.00 | 0.00 | 71 | 975.6 |
| 20260508071419 | 88 | 200 | 0.0 | 3.0 | 0.00 | 0.00 | 0.00 | 71 | 975.9 |
| 20260508070917 | 89 | 173 | 0.0 | 1.0 | 0.00 | 0.00 | 0.00 | 70 | 975.7 |
| 20260508070415 | 89 | 250 | 0.0 | 3.0 | 0.00 | 0.00 | 0.00 | 70 | 975.9 |
| 20260508065912 | 89 | 203 | 0.0 | 0.0 | 0.00 | 0.00 | 0.00 | 69 | 975.9 |
| 20260508065410 | 87 | 202 | 0.0 | 0.0 | 0.00 | 0.00 | 0.00 | 71 | 976.0 |
| 20260508064908 | 86 | 91 | 2.0 | 3.0 | 0.00 | 0.00 | 0.00 | 72 | 976.3 |
| 20260508064405 | 87 | 38 | 1.0 | 2.0 | 0.00 | 0.00 | 0.00 | 72 | 976.4 |
| 20260508063903 | 87 | 141 | 1.0 | 5.0 | 0.00 | 0.00 | 0.00 | 72 | 976.4 |
| 20260508063400 | 87 | 250 | 0.0 | 0.0 | 0.00 | 0.00 | 0.00 | 70 | 976.5 |
| 20260508062857 | 87 | 73 | 2.0 | 3.0 | 0.00 | 0.00 | 0.00 | 74 | 976.6 |
| 20260508062355 | 87 | 249 | 0.0 | 3.0 | 0.00 | 0.00 | 0.00 | 71 | 976.9 |
| 20260508061852 | 86 | 51 | 2.0 | 5.0 | 0.00 | 0.00 | 0.00 | 73 | 976.8 |
| 20260508061349 | 88 | 113 | 1.0 | 2.0 | 0.00 | 0.00 | 0.00 | 73 | 977.0 |
| 20260508060845 | 86 | 306 | 0.0 | 2.0 | 0.00 | 0.00 | 0.00 | 72 | 977.0 |
| 20260508060343 | 88 | 58 | 0.0 | 0.0 | 0.00 | 0.00 | 0.00 | 72 | 977.6 |
| 20260508055838 | 87 | 357 | 1.0 | 1.0 | 0.00 | 0.00 | 0.00 | 69 | 977.3 |
| 20260508055336 | 87 | 208 | 0.0 | 3.0 | 0.00 | 0.00 | 0.00 | 72 | 977.8 |
| 20260508054832 | 87 | 160 | 0.0 | 0.0 | 0.00 | 0.00 | 0.00 | 71 | 977.7 |
| 20260508054330 | 88 | 212 | 0.0 | 0.0 | 0.00 | 0.00 | 0.00 | 71 | 978.0 |
| 20260508053826 | 88 | 275 | 0.0 | 0.0 | 0.00 | 0.00 | 0.00 | 71 | 978.0 |
| 20260508053324 | 89 | 162 | 0.0 | 1.0 | 0.00 | 0.00 | 0.00 | 71 | 978.1 |
| 20260508052821 | 88 | 238 | 0.0 | 0.0 | 0.00 | 0.00 | 0.00 | 70 | 978.3 |
| 20260508052318 | 87 | 248 | 0.0 | 0.0 | 0.00 | 0.00 | 0.00 | 71 | 978.1 |
| 20260508051815 | 88 | 219 | 0.0 | 1.0 | 0.00 | 0.00 | 0.00 | 72 | 978.6 |
| 20260508051310 | 87 | 248 | 0.0 | 0.0 | 0.00 | 0.00 | 0.00 | 71 | 978.5 |
| 20260508050806 | 87 | 243 | 0.0 | 0.0 | 0.00 | 0.00 | 0.00 | 73 | 978.7 |
| 20260508050304 | 85 | 243 | 0.0 | 0.0 | 0.00 | 0.00 | 0.00 | 75 | 978.5 |
| 20260508045759 | 84 | 351 | 1.0 | 2.0 | 0.00 | 0.00 | 0.00 | 76 | 978.8 |
| 20260508045257 | 84 | 174 | 0.0 | 0.0 | 0.00 | 0.00 | 0.00 | 77 | 978.8 |
| 20260508044754 | 85 | 69 | 1.0 | 5.0 | 0.00 | 0.00 | 0.00 | 77 | 978.9 |
| 20260508044251 | 85 | 76 | 0.0 | 2.0 | 0.00 | 0.00 | 0.00 | 78 | 978.7 |
| 20260508043747 | 85 | 196 | 0.0 | 0.0 | 0.00 | 0.00 | 0.00 | 76 | 978.8 |
| 20260508043245 | 85 | 164 | 0.0 | 0.0 | 0.00 | 0.00 | 0.00 | 79 | 978.9 |
| 20260508042741 | 83 | 219 | 0.0 | 0.0 | 0.00 | 0.00 | 0.00 | 79 | 978.8 |
| 20260508042239 | 83 | 240 | 0.0 | 0.0 | 0.00 | 0.00 | 0.00 | 79 | 979.2 |
| 20260508041735 | 82 | 214 | 0.0 | 2.0 | 0.00 | 0.00 | 0.00 | 83 | 979.3 |
| 20260508041232 | 83 | 204 | 0.0 | 2.0 | 0.00 | 0.00 | 0.00 | 81 | 979.1 |
| 20260508040728 | 82 | 241 | 0.0 | 1.0 | 0.00 | 0.00 | 0.00 | 83 | 979.2 |
| 20260508040226 | 82 | 184 | 0.0 | 1.0 | 0.00 | 0.00 | 0.00 | 83 | 979.5 |
| 20260508035723 | 82 | 245 | 0.0 | 0.0 | 0.00 | 0.00 | 0.00 | 86 | 979.4 |
| 20260508035221 | 80 | 250 | 0.0 | 2.0 | 0.00 | 0.00 | 0.00 | 86 | 979.5 |
| 20260508034717 | 81 | 269 | 0.0 | 3.0 | 0.00 | 0.00 | 0.00 | 85 | 979.4 |
| 20260508034214 | 81 | 346 | 0.0 | 2.0 | 0.00 | 0.00 | 0.00 | 85 | 979.4 |
| 20260508033711 | 81 | 301 | 0.0 | 1.0 | 0.00 | 0.00 | 0.00 | 86 | 979.4 |
| 20260508033210 | 81 | 288 | 1.0 | 2.0 | 0.00 | 0.00 | 0.00 | 86 | 979.8 |
| 20260508032707 | 80 | 246 | 1.0 | 1.0 | 0.00 | 0.00 | 0.00 | 84 | 979.9 |
| 20260508032203 | 81 | 358 | 1.0 | 5.0 | 0.00 | 0.00 | 0.00 | 86 | 979.9 |
| 20260508031700 | 80 | 315 | 1.0 | 1.0 | 0.00 | 0.00 | 0.00 | 87 | 980.0 |
| 20260508031156 | 79 | 172 | 0.0 | 0.0 | 0.00 | 0.00 | 0.00 | 88 | 979.7 |
| 20260508030653 | 78 | 191 | 0.0 | 0.0 | 0.00 | 0.00 | 0.00 | 90 | 980.1 |
| 20260508030151 | 78 | 177 | 0.0 | 0.0 | 0.00 | 0.00 | 0.00 | 90 | 979.7 |
| 20260508025647 | 77 | 51 | 0.0 | 2.0 | 0.00 | 0.00 | 0.00 | 90 | 979.8 |
| 20260508025144 | 77 | 165 | 0.0 | 0.0 | 0.00 | 0.00 | 0.00 | 90 | 979.8 |
| 20260508024640 | 77 | 6 | 1.0 | 2.0 | 0.00 | 0.00 | 0.00 | 89 | 980.0 |
| 20260508024137 | 77 | 51 | 1.0 | 2.0 | 0.00 | 0.00 | 0.00 | 89 | 979.9 |
| 20260508023633 | 77 | 186 | 0.0 | 2.0 | 0.00 | 0.00 | 0.00 | 89 | 979.9 |
| 20260508023131 | 77 | 203 | 0.0 | 0.0 | 0.00 | 0.00 | 0.00 | 90 | 979.7 |
| 20260508022627 | 77 | 184 | 0.0 | 0.0 | 0.00 | 0.00 | 0.00 | 90 | 979.6 |
| 20260508022124 | 76 | 185 | 0.0 | 0.0 | 0.00 | 0.00 | 0.00 | 92 | 979.4 |
| 20260508021620 | 77 | 185 | 0.0 | 0.0 | 0.00 | 0.00 | 0.00 | 93 | 979.7 |
| 20260508021116 | 76 | 184 | 0.0 | 0.0 | 0.00 | 0.00 | 0.00 | 94 | 979.5 |
| 20260508020614 | 76 | 198 | 0.0 | 0.0 | 0.00 | 0.00 | 0.00 | 93 | 979.4 |
| 20260508020111 | 76 | 193 | 0.0 | 0.0 | 0.00 | 0.00 | 0.00 | 94 | 979.4 |
| 20260508015608 | 75 | 175 | 0.0 | 1.0 | 0.00 | 0.00 | 0.00 | 94 | 979.4 |
| 20260508015105 | 76 | 359 | 1.0 | 3.0 | 0.00 | 0.00 | 0.00 | 93 | 979.4 |
| 20260508014601 | 75 | 182 | 0.0 | 2.0 | 0.00 | 0.00 | 0.00 | 94 | 979.5 |
| 20260508014058 | 75 | 64 | 1.0 | 2.0 | 0.00 | 0.00 | 0.00 | 94 | 979.3 |
| 20260508013554 | 75 | 188 | 0.0 | 0.0 | 0.00 | 0.00 | 0.00 | 95 | 979.2 |
| 20260508013051 | 75 | 170 | 0.0 | 1.0 | 0.00 | 0.00 | 0.00 | 95 | 979.1 |
| 20260508012548 | 75 | 284 | 0.0 | 1.0 | 0.00 | 0.00 | 0.00 | 95 | 979.3 |
| 20260508012046 | 75 | 262 | 0.0 | 0.0 | 0.00 | 0.00 | 0.00 | 96 | 979.3 |
| 20260508011544 | 75 | 254 | 0.0 | 0.0 | 0.00 | 0.00 | 0.00 | 96 | 979.4 |
| 20260508011041 | 75 | 254 | 0.0 | 0.0 | 0.00 | 0.00 | 0.00 | 97 | 979.3 |
| 20260508010538 | 74 | 254 | 0.0 | 1.0 | 0.00 | 0.00 | 0.00 | 97 | 979.0 |
| 20260508010035 | 74 | 262 | 0.0 | 0.0 | 0.00 | 0.00 | 0.00 | 98 | 979.4 |
| 20260508005531 | 74 | 262 | 0.0 | 1.0 | 0.00 | 0.00 | 0.00 | 98 | 979.2 |
| 20260508005028 | 74 | 263 | 0.0 | 0.0 | 0.00 | 0.00 | 0.00 | 98 | 979.1 |
| 20260508004524 | 74 | 262 | 0.0 | 0.0 | 0.00 | 0.00 | 0.00 | 98 | 979.0 |
| 20260508004021 | 74 | 256 | 0.0 | 0.0 | 0.00 | 0.00 | 0.00 | 98 | 979.2 |
| 20260508003518 | 74 | 256 | 0.0 | 0.0 | 0.00 | 0.00 | 0.00 | 98 | 978.8 |
| 20260508003015 | 74 | 256 | 0.0 | 0.0 | 0.00 | 0.00 | 0.00 | 98 | 979.0 |
| 20260508002511 | 74 | 256 | 0.0 | 0.0 | 0.00 | 0.00 | 0.00 | 98 | 978.9 |
| 20260508002009 | 74 | 262 | 0.0 | 0.0 | 0.00 | 0.00 | 0.00 | 99 | 979.0 |
| 20260508001504 | 74 | 262 | 0.0 | 0.0 | 0.00 | 0.00 | 0.00 | 98 | 978.9 |
| 20260508001001 | 74 | 247 | 0.0 | 0.0 | 0.00 | 0.00 | 0.00 | 99 | 978.7 |
| 20260508000457 | 73 | 247 | 0.0 | 0.0 | 0.00 | 0.00 | 0.00 | 99 | 979.0 |
| 20260507235954 | 73 | 247 | 0.0 | 0.0 | 0.00 | 0.00 | 0.00 | 99 | 978.9 |
| 20260507235450 | 73 | 247 | 0.0 | 0.0 | 0.00 | 0.00 | 0.00 | 99 | 978.7 |
| 20260507234948 | 73 | 235 | 0.0 | 0.0 | 0.00 | 0.00 | 0.00 | 99 | 978.8 |
| 20260507234444 | 73 | 235 | 0.0 | 0.0 | 0.00 | 0.00 | 0.00 | 99 | 978.6 |
| 20260507233941 | 73 | 235 | 0.0 | 0.0 | 0.00 | 0.00 | 0.00 | 99 | 978.6 |
| 20260507233438 | 73 | 235 | 0.0 | 0.0 | 0.00 | 0.00 | 0.00 | 98 | 978.5 |
| 20260507232937 | 73 | 235 | 0.0 | 0.0 | 0.00 | 0.00 | 0.00 | 99 | 978.5 |
| 20260507232432 | 73 | 235 | 0.0 | 0.0 | 0.00 | 0.00 | 0.00 | 98 | 978.5 |
| 20260507231930 | 72 | 235 | 0.0 | 0.0 | 0.00 | 0.00 | 0.00 | 98 | 978.3 |
| 20260507231426 | 72 | 244 | 0.0 | 0.0 | 0.00 | 0.00 | 0.00 | 98 | 978.2 |
| 20260507230923 | 72 | 245 | 0.0 | 0.0 | 0.00 | 0.00 | 0.00 | 98 | 978.3 |
| 20260507230420 | 73 | 245 | 0.0 | 0.0 | 0.00 | 0.00 | 0.00 | 99 | 978.1 |
| 20260507225920 | 72 | 245 | 0.0 | 0.0 | 0.00 | 0.00 | 0.00 | 99 | 978.0 |
| 20260507225417 | 72 | 245 | 0.0 | 0.0 | 0.00 | 0.00 | 0.00 | 98 | 977.9 |
| 20260507224913 | 72 | 245 | 0.0 | 0.0 | 0.00 | 0.00 | 0.00 | 98 | 978.2 |
| 20260507224409 | 72 | 245 | 0.0 | 0.0 | 0.00 | 0.00 | 0.00 | 98 | 978.1 |
| 20260507223906 | 73 | 244 | 0.0 | 0.0 | 0.00 | 0.00 | 0.00 | 98 | 977.9 |
| 20260507223402 | 73 | 235 | 0.0 | 0.0 | 0.00 | 0.00 | 0.00 | 98 | 978.1 |
| 20260507222859 | 73 | 224 | 0.0 | 0.0 | 0.00 | 0.00 | 0.00 | 98 | 977.9 |
| 20260507222355 | 73 | 217 | 0.0 | 0.0 | 0.00 | 0.00 | 0.00 | 98 | 978.1 |
| 20260507221853 | 73 | 217 | 0.0 | 0.0 | 0.00 | 0.00 | 0.00 | 97 | 977.8 |
| 20260507221349 | 73 | 217 | 0.0 | 0.0 | 0.00 | 0.00 | 0.00 | 97 | 977.9 |
| 20260507220845 | 73 | 234 | 0.0 | 0.0 | 0.00 | 0.00 | 0.00 | 97 | 977.7 |
| 20260507220343 | 73 | 234 | 0.0 | 0.0 | 0.00 | 0.00 | 0.00 | 97 | 977.7 |
| 20260507215839 | 73 | 234 | 0.0 | 0.0 | 0.00 | 0.00 | 0.00 | 97 | 977.5 |
| 20260507215336 | 73 | 234 | 0.0 | 0.0 | 0.00 | 0.00 | 0.00 | 97 | 977.8 |
| 20260507214834 | 73 | 234 | 0.0 | 0.0 | 0.00 | 0.00 | 0.00 | 97 | 977.8 |
| 20260507214331 | 73 | 234 | 0.0 | 0.0 | 0.00 | 0.00 | 0.00 | 96 | 977.7 |
| 20260507213826 | 73 | 234 | 0.0 | 1.0 | 0.00 | 0.00 | 0.00 | 96 | 977.8 |
| 20260507213323 | 73 | 50 | 3.0 | 3.0 | 0.00 | 0.00 | 0.00 | 96 | 977.6 |
| 20260507212820 | 73 | 40 | 3.0 | 6.0 | 0.00 | 0.00 | 0.00 | 96 | 977.9 |
| 20260507212316 | 73 | 127 | 3.0 | 5.0 | 0.00 | 0.00 | 0.00 | 97 | 977.3 |
| 20260507211812 | 73 | 79 | 1.0 | 6.0 | 0.00 | 0.00 | 0.00 | 97 | 977.8 |
| 20260507211309 | 73 | 52 | 3.0 | 6.0 | 0.00 | 0.00 | 0.00 | 97 | 977.6 |
| 20260507210806 | 72 | 46 | 4.0 | 7.0 | 0.00 | 0.00 | 0.00 | 98 | 977.7 |
| 20260507210303 | 72 | 49 | 3.0 | 6.0 | 0.00 | 0.00 | 0.00 | 97 | 977.7 |
| 20260507205759 | 72 | 60 | 4.0 | 5.0 | 0.00 | 0.00 | 0.00 | 98 | 977.6 |
| 20260507205257 | 72 | 138 | 1.0 | 7.0 | 0.00 | 0.00 | 0.00 | 98 | 977.7 |
| 20260507204752 | 72 | 21 | 1.0 | 3.0 | 0.00 | 0.00 | 0.00 | 98 | 977.5 |
| 20260507204250 | 72 | 56 | 3.0 | 3.0 | 0.00 | 0.00 | 0.00 | 98 | 977.5 |
| 20260507203748 | 72 | 347 | 3.0 | 5.0 | 0.00 | 0.00 | 0.00 | 99 | 977.7 |
| 20260507203245 | 72 | 67 | 2.0 | 3.0 | 0.00 | 0.00 | 0.00 | 99 | 977.6 |
| 20260507202741 | 72 | 104 | 0.0 | 3.0 | 0.00 | 0.00 | 0.00 | 99 | 977.7 |
| 20260507202237 | 72 | 32 | 3.0 | 6.0 | 0.00 | 0.00 | 0.00 | 99 | 977.6 |
| 20260507201732 | 72 | 64 | 1.0 | 8.0 | 0.00 | 0.00 | 0.00 | 99 | 977.3 |
| 20260507201230 | 72 | 62 | 1.0 | 6.0 | 0.00 | 0.00 | 0.00 | 99 | 977.5 |
| 20260507200726 | 72 | 60 | 0.0 | 7.0 | 0.00 | 0.00 | 0.00 | 99 | 977.5 |
| 20260507200222 | 72 | 101 | 2.0 | 7.0 | 0.00 | 0.00 | 0.00 | 99 | 977.5 |
| 20260507195718 | 72 | 77 | 3.0 | 8.0 | 0.00 | 0.00 | 0.00 | 99 | 977.3 |
| 20260507195216 | 72 | 81 | 1.0 | 6.0 | 0.00 | 0.00 | 0.00 | 99 | 977.3 |
| 20260507194713 | 72 | 83 | 3.0 | 7.0 | 0.00 | 0.00 | 0.00 | 99 | 977.3 |
| 20260507194209 | 72 | 139 | 1.0 | 8.0 | 0.00 | 0.00 | 0.00 | 99 | 977.6 |
| 20260507193705 | 72 | 95 | 3.0 | 6.0 | 0.00 | 0.00 | 0.00 | 99 | 977.5 |
| 20260507193202 | 73 | 31 | 3.0 | 6.0 | 0.00 | 0.00 | 0.00 | 98 | 977.3 |
| 20260507192658 | 73 | 38 | 1.0 | 5.0 | 0.00 | 0.00 | 0.00 | 98 | 977.5 |
| 20260507192155 | 73 | 41 | 7.0 | 9.0 | 0.00 | 0.00 | 0.00 | 97 | 977.8 |
| 20260507191651 | 73 | 100 | 1.0 | 7.0 | 0.00 | 0.00 | 0.00 | 97 | 977.6 |
| 20260507191148 | 74 | 74 | 4.0 | 8.0 | 0.00 | 0.00 | 0.00 | 96 | 977.8 |
| 20260507190645 | 74 | 51 | 3.0 | 5.0 | 0.00 | 0.00 | 0.00 | 97 | 977.7 |
| 20260507190144 | 75 | 67 | 3.0 | 5.0 | 0.00 | 0.00 | 0.00 | 97 | 977.9 |
| 20260507185642 | 75 | 90 | 1.0 | 1.0 | 0.00 | 0.00 | 0.00 | 96 | 977.8 |
| 20260507185138 | 75 | 55 | 2.0 | 3.0 | 0.00 | 0.00 | 0.00 | 94 | 978.0 |
| 20260507184636 | 75 | 231 | 0.0 | 0.0 | 0.00 | 0.00 | 0.00 | 92 | 977.7 |
| 20260507184134 | 75 | 231 | 0.0 | 0.0 | 0.00 | 0.00 | 0.00 | 92 | 977.7 |
| 20260507183630 | 75 | 230 | 0.0 | 0.0 | 0.00 | 0.00 | 0.00 | 93 | 977.6 |
| 20260507183127 | 75 | 231 | 0.0 | 0.0 | 0.00 | 0.00 | 0.00 | 93 | 978.0 |
| 20260507182623 | 75 | 47 | 1.0 | 1.0 | 0.00 | 0.00 | 0.00 | 92 | 977.8 |
| 20260507182120 | 75 | 226 | 0.0 | 0.0 | 0.00 | 0.00 | 0.00 | 94 | 977.6 |
| 20260507181616 | 76 | 228 | 0.0 | 0.0 | 0.00 | 0.00 | 0.00 | 95 | 977.6 |
| 20260507181113 | 76 | 104 | 2.0 | 2.0 | 0.00 | 0.00 | 0.00 | 95 | 977.7 |
| 20260507180609 | 76 | 152 | 0.0 | 1.0 | 0.00 | 0.00 | 0.00 | 94 | 977.8 |
| 20260507180106 | 76 | 61 | 1.0 | 2.0 | 0.00 | 0.00 | 0.00 | 94 | 977.7 |
| 20260507175602 | 76 | 126 | 1.0 | 2.0 | 0.00 | 0.00 | 0.00 | 93 | 977.8 |
| 20260507175100 | 76 | 82 | 3.0 | 5.0 | 0.00 | 0.00 | 0.00 | 93 | 977.5 |
| 20260507174557 | 77 | 79 | 2.0 | 6.0 | 0.00 | 0.00 | 0.00 | 92 | 977.1 |
| 20260507174054 | 77 | 104 | 1.0 | 6.0 | 0.00 | 0.00 | 0.00 | 91 | 977.5 |
| 20260507173551 | 77 | 104 | 2.0 | 5.0 | 0.00 | 0.00 | 0.00 | 90 | 977.5 |
| 20260507173048 | 77 | 128 | 1.0 | 3.0 | 0.00 | 0.00 | 0.00 | 88 | 977.5 |
| 20260507172544 | 78 | 108 | 3.0 | 6.0 | 0.00 | 0.00 | 0.00 | 85 | 977.3 |
| 20260507172042 | 78 | 160 | 0.0 | 5.0 | 0.00 | 0.00 | 0.00 | 84 | 977.3 |
| 20260507171536 | 78 | 64 | 4.0 | 9.0 | 0.00 | 0.00 | 0.00 | 82 | 977.1 |
| 20260507171034 | 78 | 52 | 5.0 | 9.0 | 0.00 | 0.00 | 0.00 | 83 | 977.3 |
| 20260507170530 | 77 | 260 | 1.0 | 1.0 | 0.00 | 0.00 | 0.00 | 85 | 977.2 |
| 20260507170028 | 77 | 229 | 0.0 | 2.0 | 0.00 | 0.00 | 0.00 | 86 | 977.1 |
| 20260507165523 | 77 | 224 | 1.0 | 1.0 | 0.00 | 0.00 | 0.00 | 88 | 976.9 |
| 20260507165020 | 77 | 239 | 0.0 | 1.0 | 0.00 | 0.00 | 0.00 | 88 | 976.8 |
| 20260507164516 | 77 | 223 | 0.0 | 0.0 | 0.00 | 0.00 | 0.00 | 88 | 976.8 |
| 20260507164014 | 77 | 197 | 0.0 | 0.0 | 0.00 | 0.00 | 0.00 | 86 | 976.7 |
| 20260507163510 | 78 | 116 | 0.0 | 1.0 | 0.00 | 0.00 | 0.00 | 85 | 976.7 |
| 20260507163009 | 78 | 212 | 0.0 | 0.0 | 0.00 | 0.00 | 0.00 | 84 | 976.7 |
| 20260507162503 | 78 | 278 | 0.0 | 1.0 | 0.00 | 0.00 | 0.00 | 85 | 977.1 |
| 20260507162000 | 78 | 221 | 0.0 | 0.0 | 0.00 | 0.00 | 0.00 | 84 | 976.8 |
| 20260507161456 | 78 | 214 | 0.0 | 0.0 | 0.00 | 0.00 | 0.00 | 84 | 976.9 |
| 20260507160954 | 78 | 201 | 0.0 | 0.0 | 0.00 | 0.00 | 0.00 | 84 | 976.8 |
| 20260507160449 | 78 | 213 | 0.0 | 0.0 | 0.00 | 0.00 | 0.00 | 85 | 976.6 |
| 20260507155945 | 79 | 210 | 0.0 | 0.0 | 0.00 | 0.00 | 0.00 | 85 | 976.7 |
| 20260507155441 | 79 | 229 | 0.0 | 0.0 | 0.00 | 0.00 | 0.00 | 85 | 976.5 |
| 20260507154939 | 79 | 216 | 0.0 | 0.0 | 0.00 | 0.00 | 0.00 | 84 | 976.6 |
| 20260507154435 | 80 | 215 | 0.0 | 0.0 | 0.00 | 0.00 | 0.00 | 86 | 976.5 |
| 20260507153932 | 80 | 227 | 0.0 | 0.0 | 0.00 | 0.00 | 0.00 | 85 | 976.6 |
| 20260507153429 | 80 | 212 | 0.0 | 0.0 | 0.00 | 0.00 | 0.00 | 85 | 976.7 |
| 20260507152925 | 81 | 197 | 0.0 | 0.0 | 0.00 | 0.00 | 0.00 | 84 | 976.7 |
| 20260507152422 | 81 | 177 | 0.0 | 0.0 | 0.00 | 0.00 | 0.00 | 85 | 976.6 |
| 20260507151917 | 80 | 163 | 1.0 | 1.0 | 0.00 | 0.00 | 0.00 | 85 | 976.5 |
| 20260507151414 | 80 | 182 | 0.0 | 1.0 | 0.00 | 0.00 | 0.00 | 85 | 976.5 |
| 20260507150911 | 80 | 156 | 2.0 | 3.0 | 0.00 | 0.00 | 0.00 | 85 | 976.4 |
| 20260507150408 | 80 | 196 | 0.0 | 0.0 | 0.00 | 0.00 | 0.00 | 86 | 976.3 |
| 20260507145904 | 80 | 215 | 0.0 | 0.0 | 0.00 | 0.00 | 0.00 | 87 | 976.1 |
| 20260507145400 | 80 | 212 | 0.0 | 0.0 | 0.00 | 0.00 | 0.00 | 87 | 976.0 |
| 20260507144857 | 80 | 220 | 0.0 | 0.0 | 0.00 | 0.00 | 0.00 | 86 | 975.7 |
| 20260507144355 | 80 | 211 | 0.0 | 0.0 | 0.00 | 0.00 | 0.00 | 86 | 975.5 |
| 20260507143851 | 80 | 205 | 0.0 | 0.0 | 0.00 | 0.00 | 0.00 | 86 | 975.4 |
| 20260507143349 | 80 | 203 | 0.0 | 0.0 | 0.00 | 0.00 | 0.00 | 86 | 975.2 |
| 20260507142845 | 80 | 215 | 0.0 | 0.0 | 0.00 | 0.00 | 0.00 | 86 | 975.2 |
| 20260507142341 | 80 | 213 | 0.0 | 0.0 | 0.00 | 0.00 | 0.00 | 86 | 975.0 |
| 20260507141838 | 80 | 200 | 0.0 | 0.0 | 0.00 | 0.00 | 0.00 | 86 | 975.3 |
| 20260507141335 | 80 | 225 | 0.0 | 0.0 | 0.00 | 0.00 | 0.00 | 87 | 974.8 |
| 20260507140831 | 80 | 215 | 0.0 | 0.0 | 0.00 | 0.00 | 0.00 | 87 | 974.3 |
| 20260507140328 | 80 | 219 | 0.0 | 0.0 | 0.00 | 0.00 | 0.00 | 87 | 974.2 |
| 20260507135826 | 80 | 215 | 0.0 | 0.0 | 0.00 | 0.00 | 0.00 | 89 | 974.3 |
| 20260507135322 | 80 | 214 | 0.0 | 0.0 | 0.00 | 0.00 | 0.00 | 90 | 974.4 |
| 20260507134820 | 80 | 215 | 0.0 | 0.0 | 0.00 | 0.00 | 0.00 | 90 | 974.1 |
| 20260507134316 | 80 | 224 | 0.0 | 0.0 | 0.00 | 0.00 | 0.00 | 92 | 973.9 |